FLOCK 3P-55 (42041 NORAD) Tracking and Keplerian Element Data

This shows tracking and keplerian element data for the satellite.

Feedback or suggestion? Click here.




ElementValue
Catalog42041
NameFLOCK 3P-55
Epoch Orbit32641
Epoch Day358.4402467
Epoch Year2022
RAAN64.7043
Inclination97.2453
Eccentricity0.000586
Argument of Perigee298.149
Mean Anonmoly61.9179
Mean Motion15.68222079
Decay Rate0.00331104
L11 42041U 17008CX 22358.44024670 .00331104 00000+0 28566-2 0 9994
L22 42041 97.2453 64.7043 0005860 298.1490 61.9179 15.68222079326410



Live tracking and technical data element details for FLOCK 3P-55 (NORAD 42041). FLOCK 3P-55 can be tracked NOW for your location showing map with azimuth and elevation plus other details from your city location.







IsCatalogInMostPopularTable: catalog: 42041, numindb: 593
Update: records affected: 1



GetName: 42041 FLOCK 3P-55

Hit Count: updated at: Wed, 04 Dec 2024 11:50:53 GMT